Weather History for KFTW - January, 2013

Change the Weather History Date:

Wednesday, January 2, 2013

  Actual Average Record
Temperature  
Mean Temperature 34 °F -  
Max Temperature 39 °F 55 °F 79 °F (2004)
Min Temperature 28 °F 35 °F 19 °F (2002)
Degree Days  
Heating Degree Days 32    
Moisture  
Dew Point 27 °F    
Average Humidity 77    
Maximum Humidity 92    
Minimum Humidity 60    
Precipitation  
Precipitation 0.00 in - - ()
Sea Level Pressure  
Sea Level Pressure 30.31 in    
Wind  
Wind Speed 6 mph (NNW)    
Max Wind Speed 10 mph    
Max Gust Speed -    
Visibility 6 miles    
Events      
Averages and records for this station are not official NWS values.
T = Trace of Precipitation, MM = Missing Value Source: NWS Daily Summary

Daily Weather History Graph

Daily Weather History Graph

Search for Another Location

Airport or City:

Trip Planner

Search our weather history database for the weather conditions in past years. The results will help you decide how hot, cold, wet, or windy it might be!

Date:

Astronomy

Jan. 02, 2013 Rise Set
Actual Time 7:32 AM CST 5:35 PM CST
Civil Twilight 7:05 AM CST 6:02 PM CST
Nautical Twilight 6:34 AM CST 6:33 PM CST
Astronomical Twilight 6:04 AM CST 7:03 PM CST
Moon 10:49 PM CST 10:32 AM CST
Length of Visible Light 10h 57m
Length of Day
10h 02m
Waning Gibbous, 75% of the Moon is Illuminated
Jan 2
Waning Gibbous
Jan 4
Last Quarter
Jan 11
New
Jan 18
First Quarter
Jan 26
Full

Hourly Weather History & Observations

Time (CST) Temp. Windchill Dew Point Humidity Pressure Visibility Wind Dir Wind Speed Gust Speed Precip Events Conditions
12:53 AM 33.1 °F 25.5 °F 26.1 °F 75% 30.29 in 10.0 mi NW 9.2 mph - N/A   Overcast
1:53 AM 32.0 °F 26.4 °F 26.1 °F 79% 30.30 in 9.0 mi NW 5.8 mph - N/A   Overcast
2:53 AM 32.0 °F 24.8 °F 27.0 °F 82% 30.31 in 7.0 mi North 8.1 mph - N/A   Scattered Clouds
3:53 AM 30.9 °F 25.2 °F 27.0 °F 85% 30.31 in 6.0 mi NNW 5.8 mph - N/A   Clear
4:53 AM 30.0 °F 23.2 °F 27.0 °F 88% 30.30 in 5.0 mi North 6.9 mph - N/A   Clear
5:53 AM 28.9 °F - 27.0 °F 92% 30.30 in 5.0 mi Calm Calm - N/A   Clear
6:53 AM 30.0 °F 25.2 °F 27.0 °F 88% 30.31 in 5.0 mi North 4.6 mph - N/A   Clear
7:53 AM 30.0 °F 24.1 °F 27.0 °F 88% 30.33 in 3.0 mi NNW 5.8 mph - N/A   Clear
8:53 AM 30.9 °F 24.3 °F 27.0 °F 85% 30.35 in 3.0 mi NW 6.9 mph - N/A   Clear
9:53 AM 33.1 °F 26.1 °F 28.0 °F 82% 30.36 in 4.0 mi NW 8.1 mph - N/A   Haze
10:53 AM 34.0 °F 28.0 °F 28.0 °F 79% 30.37 in 5.0 mi NW 6.9 mph - N/A   Haze
11:26 AM 35.6 °F 29.9 °F 28.4 °F 75% 30.34 in 5.0 mi WNW 6.9 mph - N/A   Haze
11:53 AM 35.1 °F 30.1 °F 28.0 °F 76% 30.34 in 5.0 mi NW 5.8 mph - N/A   Haze
12:00 PM 35.6 °F 28.6 °F 28.4 °F 75% 30.32 in 5.0 mi NW 9.2 mph - N/A   Haze
12:53 PM 37.0 °F 31.6 °F 28.0 °F 70% 30.30 in 6.0 mi NW 6.9 mph - N/A   Haze
1:53 PM 39.0 °F 32.3 °F 28.0 °F 65% 30.29 in 7.0 mi NNW 10.4 mph - N/A   Clear
2:53 PM 39.9 °F 35.1 °F 27.0 °F 60% 30.27 in 9.0 mi NW 6.9 mph - N/A   Clear
3:53 PM 39.9 °F 35.8 °F 27.0 °F 60% 30.27 in 9.0 mi NNW 5.8 mph - N/A   Clear
4:53 PM 39.2 °F 37.0 °F 26.6 °F 61% 30.26 in 8.0 mi NNW 3.5 mph - N/A   Clear
5:53 PM 37.0 °F - 27.0 °F 67% 30.28 in 8.0 mi Calm Calm - N/A   Clear
6:53 PM 36.0 °F - 27.0 °F 70% 30.30 in 8.0 mi Calm Calm - N/A   Clear
7:53 PM 34.0 °F - 26.1 °F 73% 30.32 in 8.0 mi Calm Calm - N/A   Clear
8:53 PM 33.1 °F - 27.0 °F 78% 30.32 in 7.0 mi Calm Calm - N/A   Clear
10:53 PM 30.9 °F - 28.0 °F 89% 30.34 in 5.0 mi Calm Calm - N/A   Clear
11:53 PM 30.0 °F - 27.0 °F 88% 30.35 in 6.0 mi Calm Calm - N/A   Clear